Storm Lake, IA

9:25 PM CDT on August 23, 2016 (GMT -0500)
Storm Lake Municipal

Weather History for KSLB - June, 2013

Change the Weather History Date:

Tuesday, June 11, 2013

  Actual Average Record
Temperature  
Mean Temperature 75 °F -  
Max Temperature 86 °F 77 °F 96 °F (2016)
Min Temperature 64 °F 57 °F 53 °F (2006)
Cooling Degree Days 10    
Growing Degree Days 25 (Base 50)    
Moisture  
Dew Point 69 °F    
Average Humidity 81    
Maximum Humidity 100    
Minimum Humidity 55    
Precipitation  
Precipitation 0.00 in - - ()
Sea Level Pressure  
Sea Level Pressure 29.81 in    
Wind  
Wind Speed 12 mph (ESE)    
Max Wind Speed 24 mph    
Max Gust Speed 28 mph    
Visibility 10 miles    
Events Rain    
Averages and records for this station are not official NWS values.
T = Trace of Precipitation, MM = Missing Value Source: NWS Daily Summary

Daily Weather History Graph

Daily Weather History Graph

Search for Another Location

Airport or City:

Trip Planner

Search our weather history database for the weather conditions in past years. The results will help you decide how hot, cold, wet, or windy it might be!

Date:

Astronomy

Jun. 11, 2013 Rise Set
Actual Time 5:42 AM CDT 8:58 PM CDT
Civil Twilight 5:08 AM CDT 9:33 PM CDT
Nautical Twilight 4:23 AM CDT 10:18 PM CDT
Astronomical Twilight 3:28 AM CDT 11:13 PM CDT
Moon 8:29 AM CDT (6/11) 10:58 PM CDT (6/11)
Length of Visible Light 16h 25m
Length of Day
15h 15m
Waxing Crescent, 8% of the Moon is Illuminated
Jun 11
Waxing Crescent
Jun 16
First Quarter
Jun 23
Full
Jun 29
Last Quarter
Jul 8
New

Hourly Weather History & Observations

Time (CDT) Temp. Heat Index Dew Point Humidity Pressure Visibility Wind Dir Wind Speed Gust Speed Precip Events Conditions
12:15 AM 66.2 °F - 64.4 °F 94% 29.86 in 10.0 mi SSE 10.4 mph - N/A   Clear
12:35 AM 66.2 °F - 64.4 °F 94% 29.85 in 10.0 mi SSE 11.5 mph - N/A   Clear
12:55 AM 66.2 °F - 64.4 °F 94% 29.85 in 10.0 mi SSE 15.0 mph - N/A   Clear
1:15 AM 66.2 °F - 64.4 °F 94% 29.85 in 10.0 mi SSE 11.5 mph - N/A   Clear
1:35 AM 66.2 °F - 66.2 °F 100% 29.84 in 10.0 mi SSE 13.8 mph - N/A   Clear
1:55 AM 66.2 °F - 66.2 °F 100% 29.84 in 10.0 mi South 12.7 mph - N/A   Clear
2:15 AM 64.4 °F - 64.4 °F 100% 29.83 in 10.0 mi South 12.7 mph - N/A   Clear
2:35 AM 66.2 °F - 66.2 °F 100% 29.84 in 10.0 mi South 11.5 mph - N/A   Clear
2:55 AM 64.4 °F - 64.4 °F 100% 29.85 in 10.0 mi South 10.4 mph - N/A   Clear
3:55 AM 64.4 °F - 64.4 °F 100% 29.82 in 10.0 mi SE 9.2 mph - N/A   Clear
4:15 AM 66.2 °F - 66.2 °F 100% 29.80 in 10.0 mi SE 10.4 mph - N/A   Clear
4:35 AM 66.2 °F - 66.2 °F 100% 29.80 in 10.0 mi SE 10.4 mph - N/A   Clear
4:55 AM 66.2 °F - 66.2 °F 100% 29.77 in 10.0 mi SE 13.8 mph - N/A   Clear
5:15 AM 66.2 °F - 66.2 °F 100% 29.80 in 10.0 mi South 10.4 mph - N/A   Clear
5:35 AM 64.4 °F - 64.4 °F 100% 29.82 in 10.0 mi South 8.1 mph - N/A   Clear
5:55 AM 66.2 °F - 66.2 °F 100% 29.82 in 10.0 mi SSE 9.2 mph - N/A   Clear
6:15 AM 66.2 °F - 66.2 °F 100% 29.82 in 10.0 mi SE 9.2 mph - N/A   Clear
6:35 AM 66.2 °F - 66.2 °F 100% 29.82 in 10.0 mi SE 9.2 mph - N/A   Clear
6:55 AM 66.2 °F - 66.2 °F 100% 29.83 in - ESE 6.9 mph - N/A   Unknown
7:15 AM 68.0 °F - 66.2 °F 94% 29.84 in 10.0 mi SE 6.9 mph - N/A   Clear
7:35 AM 68.0 °F - 66.2 °F 94% 29.83 in 10.0 mi ESE 8.1 mph - N/A   Clear
7:55 AM 68.0 °F - 66.2 °F 94% 29.83 in 10.0 mi ESE 6.9 mph - N/A   Clear
8:15 AM 69.8 °F - 68.0 °F 94% 29.82 in 10.0 mi ESE 10.4 mph - N/A   Clear
8:35 AM 69.8 °F - 68.0 °F 94% 29.83 in 10.0 mi ESE 9.2 mph - N/A   Clear
8:55 AM 69.8 °F - 68.0 °F 94% 29.84 in 10.0 mi ESE 6.9 mph - N/A   Clear
9:15 AM 71.6 °F - 68.0 °F 88% 29.83 in 10.0 mi ESE 8.1 mph - N/A   Clear
9:35 AM 71.6 °F - 68.0 °F 88% 29.83 in 10.0 mi East 9.2 mph - N/A   Clear
9:55 AM 73.4 °F - 68.0 °F 83% 29.82 in 10.0 mi ENE 10.4 mph - N/A   Clear
10:15 AM 75.2 °F - 69.8 °F 83% 29.80 in 10.0 mi East 12.7 mph - N/A   Clear
10:35 AM 75.2 °F - 69.8 °F 83% 29.83 in 10.0 mi ENE 10.4 mph - N/A   Clear
10:55 AM 75.2 °F - 69.8 °F 83% 29.82 in 10.0 mi NE 13.8 mph - N/A   Clear
11:15 AM 77.0 °F - 69.8 °F 78% 29.84 in 10.0 mi NE 10.4 mph - N/A   Clear
11:35 AM 78.8 °F - 71.6 °F 78% 29.84 in 10.0 mi NE 12.7 mph - N/A   Clear
11:55 AM 78.8 °F - 71.6 °F 78% 29.84 in 10.0 mi NE 13.8 mph - N/A   Clear
12:15 PM 78.8 °F - 69.8 °F 74% 29.84 in 10.0 mi ENE 17.3 mph - N/A   Clear
12:35 PM 78.8 °F - 69.8 °F 74% 29.85 in 10.0 mi NE 17.3 mph - N/A   Clear
12:55 PM 80.6 °F 83.2 °F 68.0 °F 65% 29.84 in 10.0 mi ENE 18.4 mph - N/A   Clear
1:15 PM 80.6 °F 83.2 °F 68.0 °F 65% 29.85 in 10.0 mi ENE 18.4 mph - N/A   Clear
1:35 PM 84.2 °F 87.3 °F 68.0 °F 58% 29.83 in 10.0 mi ENE 17.3 mph - N/A   Clear
1:55 PM 84.2 °F 87.3 °F 68.0 °F 58% 29.82 in 10.0 mi East 20.7 mph 27.6 mph N/A   Clear
2:15 PM 84.2 °F 87.3 °F 68.0 °F 58% 29.83 in 9.0 mi East 18.4 mph 25.3 mph N/A   Clear
2:35 PM 86.0 °F 89.4 °F 68.0 °F 55% 29.82 in 10.0 mi East 23.0 mph - N/A   Clear
2:55 PM 84.2 °F 87.3 °F 68.0 °F 58% 29.79 in 10.0 mi East 19.6 mph 26.5 mph N/A   Light Drizzle
3:15 PM 86.0 °F 90.4 °F 69.8 °F 58% 29.79 in 10.0 mi ESE 19.6 mph 25.3 mph N/A   Clear
3:35 PM 84.2 °F 87.3 °F 68.0 °F 58% 29.79 in 10.0 mi ESE 20.7 mph - N/A   Clear
3:55 PM 84.2 °F 88.4 °F 69.8 °F 62% 29.81 in 10.0 mi SE 16.1 mph 27.6 mph N/A   Clear
4:15 PM 86.0 °F 91.8 °F 71.6 °F 62% 29.78 in 10.0 mi SE 24.2 mph - N/A   Clear
4:35 PM 84.2 °F 89.6 °F 71.6 °F 66% 29.77 in 10.0 mi ESE 23.0 mph - N/A   Clear
4:55 PM 84.2 °F 89.6 °F 71.6 °F 66% 29.78 in 10.0 mi ESE 18.4 mph 24.2 mph N/A   Clear
5:15 PM 84.2 °F 89.6 °F 71.6 °F 66% 29.77 in 10.0 mi ESE 18.4 mph 25.3 mph N/A   Clear
5:35 PM 84.2 °F 89.6 °F 71.6 °F 66% 29.78 in 10.0 mi ESE 17.3 mph 23.0 mph N/A   Clear
5:55 PM 84.2 °F 90.9 °F 73.4 °F 70% 29.77 in 10.0 mi SE 17.3 mph - N/A   Clear
6:15 PM 84.2 °F 89.6 °F 71.6 °F 66% 29.77 in 10.0 mi ESE 13.8 mph 20.7 mph N/A   Clear
6:35 PM 84.2 °F 89.6 °F 71.6 °F 66% 29.78 in 10.0 mi SE 13.8 mph - N/A   Clear
6:55 PM 84.2 °F 90.9 °F 73.4 °F 70% 29.77 in 10.0 mi SE 13.8 mph - N/A   Clear
7:15 PM 84.2 °F 89.6 °F 71.6 °F 66% 29.77 in 10.0 mi SE 15.0 mph - N/A   Clear
7:35 PM 84.2 °F 89.6 °F 71.6 °F 66% 29.77 in 10.0 mi SE 12.7 mph - N/A   Clear
7:55 PM 82.4 °F 87.2 °F 71.6 °F 70% 29.78 in 10.0 mi SE 13.8 mph - N/A   Clear
8:15 PM 80.6 °F 84.6 °F 71.6 °F 74% 29.78 in 10.0 mi SE 9.2 mph 16.1 mph N/A   Clear
8:35 PM 80.6 °F 84.6 °F 71.6 °F 74% 29.77 in 10.0 mi ESE 11.5 mph - N/A   Clear
8:55 PM 78.8 °F - 71.6 °F 78% 29.77 in 10.0 mi SE 10.4 mph - N/A   Clear
9:15 PM 78.8 °F - 71.6 °F 78% 29.78 in 10.0 mi SE 10.4 mph 16.1 mph N/A   Clear
9:35 PM 78.8 °F - 71.6 °F 78% 29.78 in 10.0 mi SE 11.5 mph - N/A   Clear
9:55 PM 77.0 °F - 71.6 °F 83% 29.78 in 10.0 mi SE 12.7 mph - N/A   Clear
10:15 PM 77.0 °F - 71.6 °F 83% 29.75 in 10.0 mi SE 15.0 mph 21.9 mph N/A   Clear
10:35 PM 78.8 °F - 71.6 °F 78% 29.81 in 10.0 mi SSE 10.4 mph - N/A Rain Light Rain
10:55 PM 77.0 °F - 71.6 °F 83% 29.80 in 10.0 mi SSE 11.5 mph 18.4 mph N/A   Clear
11:15 PM 75.2 °F - 71.6 °F 89% 29.79 in 10.0 mi SE 9.2 mph - N/A   Clear
11:35 PM 75.2 °F - 71.6 °F 89% 29.80 in 10.0 mi SE 9.2 mph - N/A   Clear
11:55 PM 75.2 °F - 71.6 °F 89% 29.79 in 10.0 mi SE 8.1 mph - N/A   Clear